[Date Prev][Date Next][Thread Prev][Thread Next] - [Date Index][Thread Index][Author Index]
2 Line ISS Keps 2-22
- Subject: [sarex] 2 Line ISS Keps 2-22
- From: "Dave Larsen PhD" <doc@xxxxxxxxxxx>
- Date: Tue, 21 Feb 2006 19:20:59 -0800
ISS
1 25544U 98067A 06053.02761569 .00014768 00000-0 10246-3 0 3996
2 25544 051.6428 059.7785 0007411 311.2260 144.4276 15.74693527415015
----
Via the sarex mailing list at AMSAT.ORG courtesy of AMSAT-NA.
To unsubscribe, send "unsubscribe sarex" to Majordomo@amsat.org
AMSAT Home